This is the latest recevied weather packets stored in our database for station/object N5TDX. If no packets are shown the sender has not sent any weather packets the latest 10 day(s).
| Time | Temp. | Humidity | Pressure | Rain* | Wind** | Luminosity | Snow |
|---|---|---|---|---|---|---|---|
| 1788270954 | 29.44° C | 59% | 1014.7 hPa | 0 mm | - | - | - |
| 1788270650 | 29.44° C | 59% | 1014.6 hPa | 0 mm | - | - | - |
| 1788270347 | 28.89° C | 60% | 1014.6 hPa | 0 mm | - | - | - |
| 1788270046 | 28.33° C | 60% | 1014.6 hPa | 0 mm | - | - | - |
| 1788269746 | 28.33° C | 61% | 1014.6 hPa | 0 mm | - | - | - |
| 1788269445 | 27.78° C | 63% | 1014.7 hPa | 0 mm | - | - | - |
| 1788269145 | 27.78° C | 64% | 1014.6 hPa | 0 mm | - | - | - |
| 1788268839 | 27.22° C | 65% | 1014.5 hPa | 0 mm | - | - | - |
| 1788268539 | 27.22° C | 65% | 1014.5 hPa | 0 mm | - | - | - |
| 1788268234 | 26.67° C | 66% | 1014.3 hPa | 0 mm | - | - | - |
| 1788267934 | 26.67° C | 67% | 1014.2 hPa | 0 mm | - | - | - |
| 1788267633 | 26.11° C | 67% | 1014.2 hPa | 0 mm | - | - | - |
| 1788267348 | 26.11° C | 68% | 1014.3 hPa | 0 mm | - | - | - |
| 1788267027 | 25.56° C | 68% | 1014.1 hPa | 0 mm | - | - | - |
| 1788266721 | 25.56° C | 69% | 1014 hPa | 0 mm | - | - | - |
| 1788266421 | 25° C | 70% | 1014.1 hPa | 0 mm | - | - | - |
| 1788266116 | 25° C | 70% | 1014 hPa | 0 mm | - | - | - |
| 1788265816 | 25° C | 70% | 1013.9 hPa | 0 mm | - | - | - |
| 1788265514 | 25° C | 70% | 1013.8 hPa | 0 mm | - | - | - |
| 1788265214 | 25° C | 70% | 1013.7 hPa | 0 mm | - | - | - |
| 1788264908 | 25° C | 69% | 1013.5 hPa | 0 mm | - | - | - |
| 1788264604 | 25° C | 69% | 1013.7 hPa | 0 mm | - | - | - |
| 1788264304 | 25.56° C | 68% | 1013.5 hPa | 0 mm | - | - | - |
| 1788264024 | 25.56° C | 68% | 1013.5 hPa | 0 mm | - | - | - |
| 1788263694 | 25.56° C | 68% | 1013.5 hPa | 0 mm | - | - | - |
* Rain latest hour (hover to see other rain measurements)
** Current wind speed in m/s (hover to see current wind gust speed)